Home > Weather > Gainesville > Past weeks

Flag for USA Past Weather in Gainesville, Florida, USA — Yesterday and Last 2 Weeks

Now
77 °F

Clear.


Feels Like: 78 °F
Forecast: 74 / 95 °F
Wind: No wind

Location: Gainesville Regional Airport

Current Time: Jul 29, 2016 at 2:08:24 AM

Latest Report: Jul 29, 2016 at 12:53 AM


Visibility: 10 mi

Pressure: 30.04 "Hg

Humidity: 85%

Dew Point: 72 °F

Location of GainesvilleLocation

Past Weather in Gainesville — Graph

°F

Gainesville Temperature Yesterday

Maximum temperature yesterday: 94 °F (at 1:53 PM)
Minimum temperature yesterday: 76 °F (at 4:53 AM)
Average temperature yesterday: 85 °F

High & Low Weather Summary for the Past Weeks

 TemperatureHumidityPressure
High96 °F (Jul 24, 3:53 PM)97% (Jul 14, 1:53 AM)30.25 "Hg (Jul 14, 1:53 AM)
Low68 °F (Jul 25, 6:53 AM)34% (Jul 24, 4:53 PM)29.95 "Hg (Jul 23, 5:53 PM)
Average82 °F74%30.08 "Hg
* Reported Jul 14 12:53 AM — Jul 29 12:53 AM, Gainesville, Weather by CustomWeather, © 2016

Note: Actual official high and low records may vary slightly from our data, if they occured in-between our weather recording intervals... More about our weather records

Advertising

Gainesville Weather History for the Previous 24 Hours

Scroll right to see more
 ConditionsComfort  
Time TempWeatherWind HumidityBarometerVisibility
12:53 AM
Fri, Jul 29
77 °FClear.No wind85%30.04 "Hg10 mi
11:53 PM
Thu, Jul 28
81 °FClear.No wind77%30.04 "Hg10 mi
10:53 PM79 °FClear.No wind79%30.03 "Hg10 mi
9:53 PM81 °FClear.No wind74%30.01 "Hg10 mi
8:53 PM84 °FSunny.5 mph65%30.00 "Hg10 mi
7:53 PM89 °FSunny.8 mph55%29.99 "Hg10 mi
6:53 PM92 °FSunny.8 mph52%29.98 "Hg10 mi
5:53 PM94 °FSunny.13 mph48%29.99 "Hg10 mi
4:53 PM94 °FPartly sunny.9 mph48%29.99 "Hg10 mi
3:53 PM94 °FScattered clouds.13 mph49%30.00 "Hg10 mi
2:53 PM94 °FPartly sunny.9 mph48%30.02 "Hg10 mi
1:53 PM94 °FPartly sunny.5 mph49%30.04 "Hg10 mi
12:53 PM92 °FPassing clouds.6 mph51%30.05 "Hg10 mi
11:53 AM93 °FPassing clouds.5 mph50%30.06 "Hg10 mi
10:53 AM90 °FPassing clouds.3 mph57%30.07 "Hg10 mi
9:53 AM87 °FSunny.5 mph67%30.07 "Hg10 mi
8:53 AM84 °FSunny.6 mph72%30.06 "Hg10 mi
7:53 AM80 °FPassing clouds.No wind81%30.05 "Hg10 mi
6:53 AM76 °FClear.No wind91%30.05 "Hg10 mi
5:53 AM76 °FClear.No wind91%30.04 "Hg10 mi
4:53 AM76 °FClear.No wind91%30.04 "Hg10 mi
3:53 AM78 °FPassing clouds.No wind87%30.05 "Hg10 mi
2:53 AM79 °FPassing clouds.No wind84%30.05 "Hg10 mi
Weather by CustomWeather, © 2016

See weather overviewHow to use our weather pages